Home   Weather   Sheffield   Past weeks
Flag for United Kingdom

Past Weather in Sheffield, England, United Kingdom — Yesterday and Last 2 Weeks

Now
43 °F

Quite cool.


Feels Like: 38 °F
Forecast: 50 / 38 °F
Wind: 8 mph from Northeast

Location: Manchester Airport

Current Time: Mar 30, 2020 at 11:13:28 pm

Latest Report: Mar 30, 2020 at 10:20 pm


Visibility: N/A

Pressure: 30.57 "Hg

Humidity: 61%

Dew Point: 30 °F

Location of SheffieldLocation

Past Weather in Sheffield — Graph

°F

Sheffield Temperature Yesterday

Maximum temperature yesterday: 45 °F (at 12:50 pm)
Minimum temperature yesterday: 36 °F (at 10:20 pm)
Average temperature yesterday: 40 °F

High & Low Weather Summary for the Past Weeks

 TemperatureHumidityPressure
High63 °F (Mar 25, 2:50 pm)100% (Mar 18, 2:50 am)30.83 "Hg (Mar 18, 2:50 am)
Low30 °F (Mar 23, 5:50 am)16% (Mar 26, 1:20 pm)29.83 "Hg (Mar 15, 8:20 pm)
Average45 °F65%30.34 "Hg
* Reported Mar 15 8:20 pm — Mar 30 9:50 pm, Sheffield. Weather by CustomWeather, © 2020

Note: Actual official high and low records may vary slightly from our data, if they occured in-between our weather recording intervals... More about our weather records

Sheffield Weather History for the Previous 24 Hours

Scroll right to see more
 ConditionsComfort  
Time TempWeatherWind HumidityBarometerVisibility
9:50 pm
Mon, Mar 30
43 °FQuite cool.10 mph61%30.57 "HgN/A
9:20 pm45 °FQuite cool.12 mph57%30.57 "HgN/A
8:50 pm45 °FQuite cool.12 mph57%30.57 "HgN/A
8:20 pm46 °FCool.13 mph53%30.57 "HgN/A
7:50 pm46 °FCool.14 mph53%30.57 "HgN/A
7:20 pm48 °FCool.14 mph50%30.57 "HgN/A
6:50 pm48 °FOvercast.14 mph50%30.57 "HgN/A
6:20 pm48 °FOvercast.14 mph54%30.57 "HgN/A
5:50 pm48 °FPartly sunny.13 mph54%30.57 "HgN/A
4:50 pm48 °FPartly sunny.15 mph54%30.57 "HgN/A
4:20 pm48 °FPartly sunny.10 mph54%30.57 "HgN/A
3:50 pm48 °FPartly sunny.13 mph54%30.57 "HgN/A
3:20 pm48 °FBroken clouds.10 mph54%30.57 "HgN/A
2:50 pm48 °FPassing clouds.12 mph54%30.60 "HgN/A
2:20 pm48 °FOvercast.10 mph54%30.60 "HgN/A
1:50 pm46 °FPartly sunny.13 mph57%30.60 "HgN/A
1:20 pm48 °FPartly sunny.13 mph54%30.60 "HgN/A
12:50 pm46 °FMostly cloudy.8 mph62%30.60 "HgN/A
12:20 pm46 °FMore clouds than sun.9 mph62%30.63 "HgN/A
11:50 am45 °FMostly cloudy.12 mph66%30.63 "HgN/A
11:20 am45 °FMore clouds than sun.10 mph66%30.63 "HgN/A
10:50 am45 °FMostly cloudy.10 mph66%30.63 "HgN/A
10:20 am45 °FPartly sunny.6 mph66%30.63 "HgN/A
9:50 am43 °FPartly sunny.7 mph66%30.66 "HgN/A
9:20 am41 °FMostly cloudy.6 mph66%30.66 "HgN/A
8:50 am39 °FMostly cloudy.3 mph75%30.66 "HgN/A
8:20 am36 °FMostly cloudy.No wind81%30.66 "HgN/A
7:50 am34 °FCloudy.2 mph87%30.66 "HgN/A
7:20 am34 °FMore clouds than sun.1 mph87%30.66 "HgN/A
6:50 am32 °FLight rain. More clouds than sun.1 mph87%30.66 "HgN/A
6:20 am34 °FMostly cloudy.1 mph81%30.66 "HgN/A
5:50 am32 °FPassing clouds.2 mph87%30.69 "HgN/A
5:20 am30 °FChilly.2 mph93%30.69 "HgN/A
4:50 am30 °FChilly.1 mph86%30.69 "HgN/A
4:20 am30 °FChilly.2 mph86%30.69 "HgN/A
3:50 am32 °FChilly.1 mph80%30.72 "HgN/A
3:20 am32 °FChilly.2 mph87%30.72 "HgN/A
2:50 am34 °FPassing clouds.1 mph75%30.72 "HgN/A
2:20 am34 °FChilly.1 mph81%30.74 "HgN/A
1:50 am34 °FPassing clouds.2 mph81%30.74 "HgN/A
1:20 am34 °FPassing clouds.1 mph75%30.77 "HgN/A
12:50 am34 °FPassing clouds.1 mph75%30.77 "HgN/A
12:20 am32 °FChilly.3 mph80%30.77 "HgN/A
11:50 pm
Sun, Mar 29
36 °FPassing clouds.2 mph65%30.77 "HgN/A
11:20 pm36 °FChilly.5 mph65%30.80 "HgN/A
Weather by CustomWeather, © 2020

See weather overview

Advertising